| time (UTC) | temp F | wind direction | speed MPH | gust MPH | rain 1hr in | rain 24hr in | rain mn in | humidity % | barometer mb |
| 20260509224028 | 88 | 95 | 1.0 | 5.0 | 0.00 | 0.44 | 0.01 | 37 | 1008.1 |
| 20260509222528 | 89 | 169 | 1.0 | 5.0 | 0.00 | 0.44 | 0.01 | 35 | 1008.4 |
| 20260509221720 | 88 | 226 | 1.0 | 9.0 | 0.00 | 0.44 | 0.01 | 35 | 1008.4 |
| 20260509215529 | 89 | 163 | 1.0 | 4.0 | 0.00 | 0.44 | 0.01 | 35 | 1008.4 |
| 20260509214029 | 89 | 84 | 0.0 | 3.0 | 0.00 | 0.44 | 0.01 | 33 | 1008.6 |
| 20260509212530 | 88 | 175 | 1.0 | 5.0 | 0.00 | 0.44 | 0.01 | 34 | 1008.7 |
| 20260509211029 | 88 | 176 | 1.0 | 5.0 | 0.00 | 0.44 | 0.01 | 33 | 1008.9 |
| 20260509205529 | 88 | 84 | 1.0 | 7.0 | 0.00 | 0.44 | 0.01 | 33 | 1009.1 |
| 20260509204729 | 87 | 205 | 2.0 | 6.0 | 0.00 | 0.44 | 0.01 | 34 | 1009.1 |
| 20260509202529 | 87 | 259 | 2.0 | 7.0 | 0.00 | 0.44 | 0.01 | 36 | 1009.1 |
| 20260509201028 | 87 | 245 | 2.0 | 6.0 | 0.00 | 0.44 | 0.01 | 38 | 1009.5 |
| 20260509195529 | 86 | 88 | 1.0 | 3.0 | 0.00 | 0.44 | 0.01 | 36 | 1009.6 |
| 20260509194029 | 85 | 75 | 0.0 | 4.0 | 0.00 | 0.44 | 0.01 | 37 | 1009.7 |
| 20260509192529 | 86 | 63 | 1.0 | 4.0 | 0.00 | 0.44 | 0.01 | 37 | 1009.9 |
| 20260509191722 | 87 | 188 | 1.0 | 5.0 | 0.00 | 0.44 | 0.01 | 38 | 1010.0 |
| 20260509185529 | 86 | 163 | 0.0 | 3.0 | 0.00 | 0.44 | 0.01 | 41 | 1010.1 |
| 20260509184029 | 85 | 83 | 1.0 | 5.0 | 0.00 | 0.44 | 0.01 | 40 | 1010.4 |
| 20260509182529 | 84 | 28 | 0.0 | 3.0 | 0.00 | 0.44 | 0.01 | 43 | 1010.3 |
| 20260509181029 | 83 | 185 | 1.0 | 4.0 | 0.00 | 0.44 | 0.01 | 43 | 1010.4 |
| 20260509175529 | 82 | 250 | 1.0 | 4.0 | 0.00 | 0.44 | 0.01 | 44 | 1010.7 |
| 20260509174029 | 81 | 245 | 2.0 | 6.0 | 0.00 | 0.44 | 0.01 | 47 | 1010.8 |
| 20260509172529 | 81 | 158 | 1.0 | 4.0 | 0.00 | 0.44 | 0.01 | 52 | 1011.1 |
| 20260509171029 | 80 | 129 | 2.0 | 7.0 | 0.00 | 0.44 | 0.01 | 56 | 1011.1 |
| 20260509165528 | 79 | 172 | 2.0 | 6.0 | 0.00 | 0.44 | 0.01 | 55 | 1011.3 |
| 20260509164029 | 78 | 245 | 4.0 | 8.0 | 0.00 | 0.44 | 0.01 | 57 | 1011.1 |
| 20260509162530 | 78 | 178 | 2.0 | 6.0 | 0.00 | 0.44 | 0.01 | 61 | 1011.2 |
| 20260509161028 | 77 | 166 | 1.0 | 7.0 | 0.00 | 0.44 | 0.01 | 66 | 1011.1 |
| 20260509155529 | 76 | 180 | 2.0 | 7.0 | 0.00 | 0.44 | 0.01 | 67 | 1011.0 |
| 20260509154029 | 75 | 150 | 1.0 | 8.0 | 0.00 | 0.44 | 0.01 | 69 | 1011.0 |
| 20260509152529 | 74 | 162 | 1.0 | 6.0 | 0.00 | 0.44 | 0.01 | 74 | 1010.9 |
| 20260509151029 | 73 | 183 | 1.0 | 6.0 | 0.00 | 0.44 | 0.01 | 79 | 1011.1 |
| 20260509150236 | 72 | 171 | 0.0 | 5.0 | 0.00 | 0.44 | 0.01 | 88 | 1010.6 |
| 20260509144030 | 69 | 141 | 0.0 | 4.0 | 0.00 | 0.44 | 0.01 | 93 | 1010.2 |
| 20260509142528 | 67 | 46 | 1.0 | 5.0 | 0.00 | 0.44 | 0.01 | 94 | 1010.0 |
| 20260509141718 | 66 | 41 | 0.0 | 2.0 | 0.00 | 0.44 | 0.01 | 94 | 1009.8 |
| 20260509135528 | 65 | 220 | 0.0 | 1.0 | 0.00 | 0.44 | 0.01 | 95 | 1009.9 |
| 20260509134027 | 63 | 220 | 0.0 | 1.0 | 0.00 | 0.44 | 0.01 | 95 | 1009.9 |
| 20260509133221 | 62 | 220 | 0.0 | 1.0 | 0.00 | 0.44 | 0.01 | 95 | 1009.7 |
| 20260509131026 | 60 | 220 | 0.0 | 0.0 | 0.00 | 0.44 | 0.01 | 95 | 1009.5 |
| 20260509125522 | 59 | 219 | 0.0 | 1.0 | 0.00 | 0.44 | 0.01 | 95 | 1009.3 |
| 20260509124715 | 59 | 219 | 0.0 | 0.0 | 0.00 | 0.44 | 0.01 | 95 | 1009.1 |
| 20260509123906 | 56 | 219 | 0.0 | 0.0 | 0.00 | 0.44 | 0.01 | 95 | 1008.9 |
| 20260509121018 | 55 | 219 | 0.0 | 0.0 | 0.00 | 0.44 | 0.01 | 95 | 1008.9 |
| 20260509115518 | 55 | 219 | 0.0 | 0.0 | 0.00 | 0.44 | 0.01 | 95 | 1008.8 |
| 20260509114019 | 55 | 219 | 0.0 | 0.0 | 0.00 | 0.44 | 0.01 | 95 | 1008.5 |
| 20260509112517 | 56 | 219 | 0.0 | 0.0 | 0.01 | 0.44 | 0.01 | 95 | 1008.3 |
| 20260509111014 | 56 | 219 | 0.0 | 1.0 | 0.01 | 0.44 | 0.01 | 95 | 1008.1 |
| 20260509110212 | 56 | 219 | 0.0 | 0.0 | 0.01 | 0.44 | 0.01 | 95 | 1008.2 |
| 20260509104012 | 55 | 219 | 0.0 | 0.0 | 0.01 | 0.44 | 0.01 | 95 | 1008.0 |
| 20260509102511 | 56 | 219 | 0.0 | 0.0 | 0.00 | 0.43 | 0.00 | 95 | 1008.2 |
| 20260509101008 | 56 | 219 | 0.0 | 0.0 | 0.00 | 0.43 | 0.00 | 95 | 1008.5 |
| 20260509095506 | 56 | 219 | 0.0 | 0.0 | 0.00 | 0.43 | 0.00 | 95 | 1008.8 |
| 20260509094659 | 57 | 219 | 0.0 | 0.0 | 0.00 | 0.43 | 0.00 | 95 | 1008.7 |
| 20260509092502 | 56 | 219 | 0.0 | 0.0 | 0.00 | 0.43 | 0.00 | 95 | 1008.7 |
| 20260509091710 | 58 | 219 | 0.0 | 0.0 | 0.00 | 0.43 | 0.00 | 95 | 1008.6 |
| 20260509085502 | 58 | 219 | 0.0 | 0.0 | 0.00 | 0.43 | 0.00 | 95 | 1008.7 |
| 20260509084001 | 57 | 219 | 0.0 | 0.0 | 0.00 | 0.43 | 0.00 | 95 | 1008.7 |
| 20260509082500 | 58 | 219 | 0.0 | 0.0 | 0.00 | 0.43 | 0.00 | 95 | 1008.7 |
| 20260509081000 | 58 | 219 | 0.0 | 0.0 | 0.00 | 0.43 | 0.00 | 95 | 1008.9 |
| 20260509075501 | 59 | 219 | 0.0 | 0.0 | 0.00 | 0.43 | 0.00 | 95 | 1009.1 |
| 20260509074000 | 60 | 219 | 0.0 | 0.0 | 0.00 | 0.43 | 0.00 | 95 | 1009.1 |
| 20260509072502 | 60 | 219 | 0.0 | 0.0 | 0.00 | 0.43 | 0.00 | 95 | 1009.2 |
| 20260509071001 | 61 | 219 | 0.0 | 1.0 | 0.00 | 0.43 | 0.00 | 95 | 1009.3 |
| 20260509065502 | 60 | 219 | 0.0 | 1.0 | 0.00 | 0.43 | 0.00 | 95 | 1009.4 |
| 20260509064002 | 60 | 219 | 0.0 | 1.0 | 0.00 | 0.43 | 0.00 | 95 | 1009.3 |
| 20260509063856 | 60 | 219 | 0.0 | 1.0 | 0.00 | 0.43 | 0.00 | 95 | 1009.6 |
| 20260509061000 | 60 | 219 | 0.0 | 2.0 | 0.00 | 0.43 | 0.00 | 95 | 1009.7 |
| 20260509055502 | 60 | 219 | 0.0 | 0.0 | 0.00 | 0.43 | 0.00 | 95 | 1009.8 |
| 20260509054000 | 60 | 219 | 0.0 | 0.0 | 0.00 | 0.43 | 0.00 | 95 | 1009.8 |
| 20260509053156 | 61 | 219 | 0.0 | 1.0 | 0.00 | 0.43 | 0.00 | 95 | 1009.6 |
| 20260509051659 | 61 | 219 | 0.0 | 2.0 | 0.00 | 0.43 | 0.00 | 95 | 1009.4 |
| 20260509045503 | 61 | 219 | 0.0 | 2.0 | 0.00 | 0.43 | 0.43 | 95 | 1009.2 |
| 20260509044001 | 61 | 219 | 1.0 | 3.0 | 0.00 | 0.43 | 0.43 | 95 | 1008.8 |
| 20260509042503 | 61 | 219 | 2.0 | 5.0 | 0.00 | 0.43 | 0.43 | 95 | 1008.7 |
| 20260509041001 | 62 | 219 | 0.0 | 0.0 | 0.00 | 0.43 | 0.43 | 95 | 1008.5 |
| 20260509035503 | 62 | 219 | 1.0 | 3.0 | 0.00 | 0.43 | 0.43 | 95 | 1008.6 |
| 20260509034652 | 62 | 219 | 1.0 | 2.0 | 0.00 | 0.43 | 0.43 | 95 | 1008.4 |
| 20260509032502 | 62 | 219 | 0.0 | 3.0 | 0.00 | 0.43 | 0.43 | 95 | 1008.0 |
| 20260509031000 | 62 | 221 | 1.0 | 3.0 | 0.00 | 0.43 | 0.43 | 95 | 1007.6 |
| 20260509025500 | 61 | 220 | 0.0 | 3.0 | 0.00 | 0.43 | 0.43 | 95 | 1007.2 |
| 20260509024001 | 62 | 220 | 1.0 | 4.0 | 0.00 | 0.43 | 0.43 | 95 | 1007.0 |
| 20260509022501 | 62 | 243 | 1.0 | 3.0 | 0.00 | 0.43 | 0.43 | 95 | 1006.7 |
| 20260509021002 | 62 | 243 | 0.0 | 3.0 | 0.00 | 0.43 | 0.43 | 95 | 1006.7 |
| 20260509015500 | 63 | 187 | 2.0 | 5.0 | 0.00 | 0.43 | 0.43 | 95 | 1006.8 |
| 20260509015357 | 62 | 190 | 0.0 | 4.0 | 0.00 | 0.43 | 0.43 | 95 | 1006.6 |
| 20260509013157 | 62 | 54 | 1.0 | 5.0 | 0.00 | 0.43 | 0.43 | 95 | 1006.1 |
| 20260509011001 | 63 | 30 | 1.0 | 5.0 | 0.00 | 0.43 | 0.43 | 95 | 1006.0 |
| 20260509005501 | 63 | 173 | 0.0 | 3.0 | 0.00 | 0.43 | 0.43 | 95 | 1005.7 |
| 20260509004000 | 63 | 180 | 0.0 | 4.0 | 0.00 | 0.43 | 0.43 | 95 | 1005.3 |
| 20260509002502 | 63 | 183 | 1.0 | 4.0 | 0.23 | 0.43 | 0.43 | 95 | 1004.8 |
| 20260509001000 | 63 | 204 | 1.0 | 4.0 | 0.25 | 0.43 | 0.43 | 94 | 1004.6 |
| 20260508235502 | 62 | 223 | 1.0 | 7.0 | 0.39 | 0.43 | 0.43 | 94 | 1004.5 |
| 20260508234655 | 61 | 214 | 7.0 | 15.0 | 0.43 | 0.43 | 0.43 | 94 | 1004.4 |
| 20260508233205 | 61 | 324 | 1.0 | 11.0 | 0.20 | 0.20 | 0.20 | 94 | 1005.7 |
| 20260508231712 | 61 | 37 | 4.0 | 19.0 | 0.18 | 0.18 | 0.18 | 91 | 1004.3 |
| 20260508225502 | 71 | 326 | 7.0 | 24.0 | 0.03 | 0.03 | 0.03 | 66 | 1006.1 |